Regional Weather Roundup
Issued by NWS

Home | Current Version | Previous Version | Graphics & Text | Print | Product List | Glossary On
Versions: 1 2 3 4 5 6 7 8 9 10 11 12 13 14 15 16 17 18 19 20 21 22 23 24 25 26 27 28 29 30 31 32 33 34 35 36 37 38 39 40 41 42 43 44 45 46 47 48 49 50
000
ASUS43 KFSD 261202
RWRSD

WEATHER ROUNDUP FOR SOUTH DAKOTA
NATIONAL WEATHER SERVICE SIOUX FALLS SD
700 AM CDT THU APR 26 2018

NOTE: "FAIR" INDICATES FEW OR NO CLOUDS BELOW 12,000 FEET WITH NO
SIGNIFICANT WEATHER AND/OR OBSTRUCTIONS TO VISIBILITY.


SDZ001>005-009-010-012>017-261300-
NORTHWEST AND NORTH CENTRAL SOUTH DAKOTA

CITY           SKY/WX    TMP DP  RH WIND       PRES   REMARKS
BUFFALO          N/A     36  30  79 NW12      30.11R
FAITH            N/A     38  34  85 NW9       30.12R
MOBRIDGE       CLEAR     39  30  70 NW9       30.04R
$$

SDZ012>016-024>037-041>051-057-063-072>074-261300-
SOUTHWEST AND SOUTH CENTRAL SOUTH DAKOTA

CITY           SKY/WX    TMP DP  RH WIND       PRES   REMARKS
RAPID CTY ARPT PTCLDY    44  32  62 NW16      30.17R
PIERRE         PTCLDY    42  33  70 N20       30.03R
CUSTER         PTCLDY    35  25  66 N6        30.17R
ELLSWORTH AFB  PTCLDY    44  33  64 N13       30.16R
PHILIP         PTCLDY    41  34  76 NW12      30.11R
PINE RIDGE     CLEAR     44  33  65 N12       30.13R
SPEARFISH      CLOUDY    43  32  65 NW9       30.20R
WINNER         FAIR      46  34  62 N17       30.00R
$$

SDZ004>011-016>023-039-040-261300-
NORTHEAST SOUTH DAKOTA

CITY           SKY/WX    TMP DP  RH WIND       PRES   REMARKS
ABERDEEN       CLEAR     43  33  68 N21       29.98R
WATERTOWN      PTCLDY    42  35  76 N16       29.89R
BROOKINGS      MOCLDY    44  35  70 W7        29.88R
SISSETON         N/A     42  33  70 NW17      29.91R
$$

SDZ017-020-022-023-036>040-048>070-261300-
SOUTHEAST SOUTH DAKOTA

CITY           SKY/WX    TMP DP  RH WIND       PRES   REMARKS
SIOUX FALLS    CLOUDY    44  32  62 SW8       29.86R
HURON          CLOUDY    43  35  73 N20G33    29.90R
CHAMBERLAIN    CLOUDY    47  36  65 N17G24    29.95R
MITCHELL       CLOUDY    48  37  65 NW14      29.88R
YANKTON        CLOUDY    46  35  65 SW8       29.89R
$$

ABBREVIATIONS USED IN REMARKS
   TC - TEMPERATURE IN CELSIUS
  WCI - WIND CHILL INDEX
   HX - HEAT INDEX
  VSB - VISIBILITY





USA.gov is the U.S. government's official web portal to all federal, state and local government web resources and services.